CW4778 Auckland NZ current weather conditions

sailwx.info

Wind from 258

Air temperature 13.3° C
Dewpoint 11.4° C

Last reported at 2018-Apr-22 19:08 UTC.
Time now 2018-Apr-22 20:02 UTC

Location: S 36°52' E 174°44'.
View on Google Maps.

See reports from other nearby stations

  
Tides and Currents Weather Stations Pressure Air Temp Water Temp Dewpoint Dewpoint Depression Visibility Wind Speed Wind Dir Waves Ship Positions
date/time (UTC)wind fromknots sea level pressurealtimeterstation pressurevisibilityair tempwater tempwave heightnotes
2018-Apr-22 19:08 258 13.3
2018-Apr-22 18:38 256 13.3
2018-Apr-22 18:28 255 13.3
2018-Apr-22 18:18 254 13.3
2018-Apr-22 18:08 253 13.3
2018-Apr-22 17:48 254 13.3
2018-Apr-22 17:38 255 13.3
2018-Apr-22 17:18 257 13.3
2018-Apr-22 17:08 260 13.3
2018-Apr-22 16:58 256 13.3
2018-Apr-22 16:48 256 13.3
2018-Apr-22 16:38 255 13.3
2018-Apr-22 16:28 255 13.3
2018-Apr-22 16:08 257 13.3
2018-Apr-22 15:58 255 13.3
2018-Apr-22 15:38 257 13.3
2018-Apr-22 15:28 245 13.3
2018-Apr-22 15:18 244 13.3
2018-Apr-22 15:08 243 13.3
2018-Apr-22 14:58 246 13.3
2018-Apr-22 14:48 256 13.3
2018-Apr-22 14:38 257 13.3
2018-Apr-22 14:28 256 12.8
2018-Apr-22 13:58 258 12.8
2018-Apr-22 13:38 257 12.8
2018-Apr-22 13:28 257 12.8
2018-Apr-22 13:18 257 12.8
2018-Apr-22 13:08 256 12.8
2018-Apr-22 12:58 260 12.8
2018-Apr-22 12:18 231 12.2
2018-Apr-22 12:08 214 12.2
2018-Apr-22 11:58 224 12.2
2018-Apr-22 11:48 224 11.7
2018-Apr-22 11:28 226 11.7
2018-Apr-22 10:58 224 11.7
2018-Apr-22 10:48 227 11.7
2018-Apr-22 10:38 227 12.2
2018-Apr-22 10:28 226 12.2
2018-Apr-22 10:18 293 12.8
2018-Apr-22 10:08 224 12.8
2018-Apr-22 09:58 225 13.3
2018-Apr-22 09:48 223 13.3
2018-Apr-22 09:38 239 13.3
2018-Apr-22 09:28 235 13.3
2018-Apr-22 09:18 232 13.9
2018-Apr-22 08:48 212 14.4
2018-Apr-22 08:38 172 1 gusting 5 14.4
2018-Apr-22 08:28 227 0 gusting 5 14.4
2018-Apr-22 08:18 211 0 gusting 1 15.0
2018-Apr-22 08:08 186 15.0
2018-Apr-22 07:48 218 15.0
2018-Apr-22 07:18 234 0 gusting 5 15.6
2018-Apr-22 07:08 218 15.6
2018-Apr-22 06:58 337 1 gusting 7 15.6
2018-Apr-22 06:48 200 2 gusting 7 15.6
2018-Apr-22 06:38 193 1 gusting 6 15.6
2018-Apr-22 06:28 209 1 gusting 5 15.6
2018-Apr-22 06:18 294 2 gusting 6 15.6
2018-Apr-22 06:08 161 1 gusting 5 15.6
2018-Apr-22 05:48 217 2 gusting 10 16.1
2018-Apr-22 05:38 209 1 gusting 10 16.1
2018-Apr-22 05:18 313 5 gusting 10 16.7
2018-Apr-22 05:08 192 7 gusting 13 16.7
2018-Apr-22 04:58 216 0 gusting 6 16.7
2018-Apr-22 04:48 207 16.7
2018-Apr-22 04:38 200 3 gusting 13 16.7
2018-Apr-22 04:18 240 5 gusting 13 17.2
2018-Apr-22 04:08 202 6 gusting 14 17.8
2018-Apr-22 03:48 220 4 gusting 14 17.8
2018-Apr-22 03:38 224 6 gusting 14 17.8
2018-Apr-22 03:28 194 6 gusting 13 18.3
2018-Apr-22 03:18 239 5 gusting 15 18.3
2018-Apr-22 03:08 224 5 gusting 13 18.9
2018-Apr-22 02:48 200 6 gusting 13 18.9
2018-Apr-22 02:28 204 5 gusting 15 18.3
2018-Apr-22 02:08 200 6 gusting 14 18.3
2018-Apr-22 01:58 219 7 gusting 13 18.3
2018-Apr-22 01:38 240 6 gusting 13 18.3
2018-Apr-22 01:08 210 2 gusting 13 19.4
2018-Apr-22 00:28 176 8 gusting 20 20.6
2018-Apr-22 00:18 199 9 gusting 18 20.0
2018-Apr-21 23:58 207 6 gusting 19 18.9
2018-Apr-21 23:48 196 7 gusting 13 21.1
2018-Apr-21 23:38 231 7 gusting 14 21.7
2018-Apr-21 23:18 201 13 gusting 20 21.1
2018-Apr-21 23:08 217 8 gusting 20 21.1
2018-Apr-21 22:58 215 7 gusting 19 20.6
2018-Apr-21 22:28 191 11 gusting 20 18.3
2018-Apr-21 22:18 195 4 gusting 15 18.9
2018-Apr-21 22:08 220 9 gusting 15 18.3
2018-Apr-21 21:48 222 2 gusting 14 17.2
2018-Apr-21 21:38 222 10 gusting 15 17.2
2018-Apr-21 21:28 246 6 gusting 13 16.1
2018-Apr-21 20:58 207 7 gusting 14 15.6
2018-Apr-21 20:48 242 3 gusting 14 15.6
2018-Apr-21 20:38 226 4 gusting 14 15.0
2018-Apr-21 20:08 200 2 gusting 13 14.4
2018-Apr-21 19:58 252 13.9
2018-Apr-21 19:38 240 13.9
2018-Apr-21 19:28 256 2 gusting 7 13.3
2018-Apr-21 19:18 267 13.3
2018-Apr-21 19:08 244 0 gusting 6 12.8
2018-Apr-21 18:58 252 12.8
2018-Apr-21 18:38 248 0 gusting 1 12.8
2018-Apr-21 18:28 236 12.8
2018-Apr-21 18:08 218 12.8
2018-Apr-21 17:48 277 12.8
2018-Apr-21 17:38 267 13.3
2018-Apr-21 17:28 223 13.3
2018-Apr-21 17:18 240 1 gusting 7 13.9
2018-Apr-21 17:08 242 1 gusting 6 13.9
2018-Apr-21 16:58 224 1 gusting 6 13.9
2018-Apr-21 16:48 243 2 gusting 8 13.9
2018-Apr-21 16:28 237 13.9
2018-Apr-21 16:18 241 13.9
2018-Apr-21 16:08 253 13.9
2018-Apr-21 15:58 344 13.9
2018-Apr-21 15:48 285 13.9
2018-Apr-21 15:38 283 13.9
2018-Apr-21 15:18 282 13.9
2018-Apr-21 15:08 298 13.9
2018-Apr-21 14:58 258 13.3
2018-Apr-21 14:38 239 13.3
2018-Apr-21 14:28 241 13.9
2018-Apr-21 14:18 240 13.9
2018-Apr-21 13:58 242 14.4
2018-Apr-21 13:48 244 14.4
2018-Apr-21 13:38 239 15.0
2018-Apr-21 13:28 238 15.0
2018-Apr-21 13:18 240 15.0
2018-Apr-21 13:08 236 15.6
2018-Apr-21 12:58 231 15.6
2018-Apr-21 12:48 228 15.6
2018-Apr-21 12:18 244 16.1
2018-Apr-21 12:08 243 16.1
2018-Apr-21 11:58 245 0 gusting 5 16.1
2018-Apr-21 11:48 252 16.1
2018-Apr-21 11:38 242 16.1
2018-Apr-21 11:18 241 16.1
2018-Apr-21 11:08 241 16.1
2018-Apr-21 10:58 240 16.1
2018-Apr-21 10:48 231 16.1
2018-Apr-21 10:38 340 0 gusting 6 16.1
2018-Apr-21 10:28 335 16.1
2018-Apr-21 10:18 288 16.1
2018-Apr-21 09:48 317 16.1
2018-Apr-21 09:18 277 1 gusting 6 16.1
2018-Apr-21 08:58 298 1 gusting 6 16.7
2018-Apr-21 08:48 273 1 gusting 10 16.7
2018-Apr-21 08:38 277 3 gusting 10 16.7
2018-Apr-21 08:28 296 0 gusting 4 16.7
2018-Apr-21 07:48 279 0 gusting 5 16.7
2018-Apr-21 07:28 282 0 gusting 6 16.7
2018-Apr-21 07:18 317 16.7
2018-Apr-21 07:08 275 16.7
2018-Apr-21 06:48 331 0 gusting 7 16.7
2018-Apr-21 06:08 272 17.2
2018-Apr-21 05:58 297 1 gusting 6 17.2
2018-Apr-21 05:48 281 1 gusting 12 17.2
2018-Apr-21 05:28 260 6 gusting 12 17.8
2018-Apr-21 05:18 358 3 gusting 20 17.8
2018-Apr-21 05:08 294 2 gusting 8 18.3
2018-Apr-21 04:38 281 5 gusting 13 18.3
2018-Apr-21 04:08 241 5 gusting 14 18.9
2018-Apr-21 03:58 288 2 gusting 12 18.9
2018-Apr-21 03:48 245 4 gusting 13 18.9
2018-Apr-21 03:38 287 4 gusting 18 18.9
2018-Apr-21 03:18 283 5 gusting 8 18.9
2018-Apr-21 03:08 286 4 gusting 12 19.4
2018-Apr-21 02:58 273 1 gusting 8 19.4
2018-Apr-21 02:48 293 4 gusting 13 19.4
2018-Apr-21 02:38 255 6 gusting 11 18.9
2018-Apr-21 02:28 250 2 gusting 19 19.4
2018-Apr-21 02:18 280 4 gusting 15 20.0
2018-Apr-21 02:08 242 7 gusting 18 20.0
2018-Apr-21 01:58 065 6 gusting 13 19.4
2018-Apr-21 01:48 281 2 gusting 10 18.9
2018-Apr-21 01:38 279 3 gusting 11 19.4
2018-Apr-21 01:28 283 1 gusting 14 18.9
2018-Apr-21 00:48 249 5 gusting 13 18.3
2018-Apr-21 00:38 248 4 gusting 8 18.9
2018-Apr-21 00:28 213 1 gusting 6 18.9
2018-Apr-20 23:58 285 1 gusting 15 21.1
2018-Apr-20 23:38 283 6 gusting 12 20.6
2018-Apr-20 23:28 291 8 gusting 18 21.1
2018-Apr-20 23:18 266 4 gusting 12 21.1
2018-Apr-20 23:08 276 5 gusting 13 19.4
2018-Apr-20 22:48 224 4 gusting 19 20.0
2018-Apr-20 22:38 280 2 gusting 13 20.6
2018-Apr-20 22:08 273 0 gusting 7 20.6
2018-Apr-20 21:58 288 4 gusting 7 20.6
2018-Apr-20 21:48 260 1 gusting 11 19.4
2018-Apr-20 21:28 264 4 gusting 10 18.9
2018-Apr-20 21:08 331 17.8
2018-Apr-20 20:58 337 17.2
2018-Apr-20 20:48 329 0 gusting 5 16.7
2018-Apr-20 20:38 319 0 gusting 5 16.1
2018-Apr-20 20:28 281 16.1
2018-Apr-20 20:08 289 0 gusting 4 15.0